Time,TemperatureF,DewpointF,PressureIn,WindDirection,WindDirectionDegrees,WindSpeedMPH,WindSpeedGustMPH,Humidity,HourlyPrecipIn,Conditions,Clouds,dailyrainin,SoftwareType,DateUTC
2013-01-25 00:03:00,29.8,19.9,30.16,NE,48,4.0,4.0,66,0.00,,,0.00,VWS V13.01,2013-01-25 06:03:00,
2013-01-25 00:08:00,29.8,19.5,30.16,ENE,68,4.9,4.9,65,0.00,,,0.00,VWS V13.01,2013-01-25 06:08:00,
2013-01-25 00:13:00,29.8,19.9,30.16,NE,38,4.9,4.9,66,0.00,,,0.00,VWS V13.01,2013-01-25 06:13:00,
2013-01-25 00:18:00,29.8,19.5,30.16,NE,43,6.3,6.3,65,0.00,,,0.00,VWS V13.01,2013-01-25 06:18:00,
2013-01-25 00:23:00,29.8,19.5,30.16,ENE,59,5.4,5.4,65,0.00,,,0.00,VWS V13.01,2013-01-25 06:23:00,
2013-01-25 00:28:00,29.8,19.5,30.16,NE,51,7.6,7.6,65,0.00,,,0.00,VWS V13.01,2013-01-25 06:28:00,
2013-01-25 00:33:00,29.8,19.5,30.16,ENE,57,5.8,6.3,65,0.00,,,0.00,VWS V13.01,2013-01-25 06:33:00,
2013-01-25 00:38:00,29.8,19.5,30.16,NE,42,5.8,5.8,65,0.00,,,0.00,VWS V13.01,2013-01-25 06:38:00,
2013-01-25 00:43:00,29.8,19.5,30.16,NE,55,4.0,4.5,65,0.00,,,0.00,VWS V13.01,2013-01-25 06:43:00,
2013-01-25 00:48:00,29.8,19.1,30.16,ENE,62,3.1,3.6,64,0.00,,,0.00,VWS V13.01,2013-01-25 06:48:00,
2013-01-25 00:53:00,29.8,19.1,30.16,NE,47,4.0,4.0,64,0.00,,,0.00,VWS V13.01,2013-01-25 06:53:00,
2013-01-25 00:58:00,30.0,19.3,30.16,NE,50,4.9,4.9,64,0.00,,,0.00,VWS V13.01,2013-01-25 06:58:00,
2013-01-25 01:03:00,30.0,19.3,30.13,ENE,64,4.0,4.0,64,0.00,,,0.00,VWS V13.01,2013-01-25 07:03:00,
2013-01-25 01:08:00,30.0,19.0,30.13,NE,54,4.9,4.9,63,0.00,,,0.00,VWS V13.01,2013-01-25 07:08:00,
2013-01-25 01:13:00,30.2,19.5,30.13,NE,52,5.4,6.3,64,0.00,,,0.00,VWS V13.01,2013-01-25 07:13:00,
2013-01-25 01:18:00,30.2,19.1,30.13,NNE,33,5.8,6.3,63,0.00,,,0.00,VWS V13.01,2013-01-25 07:18:00,
2013-01-25 01:23:00,30.2,19.5,30.13,NE,56,2.7,4.9,64,0.00,,,0.00,VWS V13.01,2013-01-25 07:23:00,
2013-01-25 01:28:00,30.2,19.5,30.13,NE,42,5.8,5.8,64,0.00,,,0.00,VWS V13.01,2013-01-25 07:28:00,
2013-01-25 01:33:00,30.2,19.5,30.13,ENE,60,4.0,5.4,64,0.00,,,0.00,VWS V13.01,2013-01-25 07:33:00,
2013-01-25 01:38:00,30.2,19.5,30.13,NE,54,5.4,6.3,64,0.00,,,0.00,VWS V13.01,2013-01-25 07:38:00,
2013-01-25 01:43:00,30.2,19.5,30.13,NE,34,4.9,4.9,64,0.00,,,0.00,VWS V13.01,2013-01-25 07:43:00,
2013-01-25 01:48:00,30.2,19.9,30.13,ENE,69,5.8,5.8,65,0.00,,,0.00,VWS V13.01,2013-01-25 07:48:00,
2013-01-25 01:53:00,30.2,20.2,30.13,NE,36,5.4,6.3,66,0.00,,,0.00,VWS V13.01,2013-01-25 07:53:00,
2013-01-25 01:58:00,30.2,20.2,30.13,NE,41,3.6,6.7,66,0.00,,,0.00,VWS V13.01,2013-01-25 07:58:00,
2013-01-25 02:03:00,30.2,20.2,30.13,NE,42,4.0,4.0,66,0.00,,,0.00,VWS V13.01,2013-01-25 08:03:00,
2013-01-25 02:08:00,30.2,20.6,30.13,NNE,17,5.8,8.1,67,0.00,,,0.00,VWS V13.01,2013-01-25 08:08:00,
2013-01-25 02:13:00,30.2,20.9,30.13,NE,50,2.7,6.3,68,0.00,,,0.00,VWS V13.01,2013-01-25 08:13:00,
2013-01-25 02:18:00,30.2,21.2,30.13,NE,48,8.1,8.3,69,0.00,,,0.00,VWS V13.01,2013-01-25 08:18:00,
2013-01-25 02:23:00,30.2,21.6,30.13,NNE,21,5.4,5.4,70,0.00,,,0.00,VWS V13.01,2013-01-25 08:23:00,
2013-01-25 02:28:00,30.2,21.6,30.13,NE,47,4.0,5.8,70,0.00,,,0.00,VWS V13.01,2013-01-25 08:28:00,
2013-01-25 02:33:00,30.4,21.8,30.13,NE,38,4.9,5.8,70,0.00,,,0.00,VWS V13.01,2013-01-25 08:33:00,
2013-01-25 02:38:00,30.4,21.8,30.13,ENE,76,3.6,4.0,70,0.00,,,0.00,VWS V13.01,2013-01-25 08:38:00,
2013-01-25 02:43:00,30.5,22.3,30.13,ENE,63,4.0,6.3,71,0.00,,,0.00,VWS V13.01,2013-01-25 08:43:00,
2013-01-25 02:47:00,30.5,22.3,30.13,NE,38,5.8,5.8,71,0.00,,,0.00,VWS V13.01,2013-01-25 08:47:00,
2013-01-25 02:52:00,30.4,22.8,30.13,NE,50,5.8,5.8,73,0.00,,,0.00,VWS V13.01,2013-01-25 08:52:00,
2013-01-25 02:57:00,30.4,22.8,30.13,ENE,72,5.4,5.8,73,0.00,,,0.00,VWS V13.01,2013-01-25 08:57:00,
2013-01-25 03:03:00,30.4,23.7,30.13,ENE,77,7.6,7.6,76,0.00,,,0.00,VWS V13.01,2013-01-25 09:03:00,
2013-01-25 03:07:00,30.0,25.2,30.13,NE,56,4.9,5.8,82,0.00,,,0.00,VWS V13.01,2013-01-25 09:07:00,
2013-01-25 03:12:00,29.6,25.7,30.13,NNE,27,2.7,3.6,85,0.00,,,0.00,VWS V13.01,2013-01-25 09:12:00,
2013-01-25 03:17:00,29.6,26.2,30.13,ENE,58,3.1,4.0,87,0.00,,,0.00,VWS V13.01,2013-01-25 09:17:00,
2013-01-25 03:22:00,29.5,26.4,30.13,ENE,67,2.7,4.0,88,0.00,,,0.00,VWS V13.01,2013-01-25 09:22:00,
2013-01-25 03:27:00,29.5,26.6,30.13,East,96,2.7,2.7,89,0.00,,,0.00,VWS V13.01,2013-01-25 09:27:00,
2013-01-25 03:32:00,29.3,26.5,30.13,ENE,65,2.2,2.7,89,0.00,,,0.00,VWS V13.01,2013-01-25 09:32:00,
2013-01-25 03:37:00,29.3,27.0,30.13,NE,50,0.0,0.0,91,0.00,,,0.00,VWS V13.01,2013-01-25 09:37:00,
2013-01-25 03:42:00,29.3,27.5,30.13,NNE,29,2.2,2.2,93,0.00,,,0.00,VWS V13.01,2013-01-25 09:42:00,
2013-01-25 03:47:00,29.3,27.5,30.13,East,89,2.7,2.7,93,0.00,,,0.00,VWS V13.01,2013-01-25 09:47:00,
2013-01-25 03:52:00,29.3,27.5,30.13,ESE,104,0.0,0.0,93,0.00,,,0.00,VWS V13.01,2013-01-25 09:52:00,
2013-01-25 03:57:00,29.3,27.8,30.13,ESE,113,0.0,3.1,94,0.00,,,0.00,VWS V13.01,2013-01-25 09:57:00,
2013-01-25 04:02:00,29.3,27.5,30.13,ESE,113,0.0,0.0,93,0.00,,,0.00,VWS V13.01,2013-01-25 10:02:00,
2013-01-25 04:07:00,29.3,27.5,30.13,ESE,113,0.0,0.0,93,0.00,,,0.00,VWS V13.01,2013-01-25 10:07:00,
2013-01-25 04:12:00,29.3,27.5,30.13,SE,140,0.0,0.0,93,0.00,,,0.00,VWS V13.01,2013-01-25 10:12:00,
2013-01-25 04:17:00,29.5,27.7,30.13,SSE,162,0.0,0.0,93,0.00,,,0.00,VWS V13.01,2013-01-25 10:17:00,
2013-01-25 04:22:00,29.5,27.4,30.13,SE,143,2.7,3.1,92,0.00,,,0.00,VWS V13.01,2013-01-25 10:22:00,
2013-01-25 04:27:00,29.5,27.7,30.13,SE,133,2.7,2.7,93,0.00,,,0.00,VWS V13.01,2013-01-25 10:27:00,
2013-01-25 04:32:00,29.5,27.7,30.10,ESE,116,2.7,4.0,93,0.00,,,0.00,VWS V13.01,2013-01-25 10:32:00,
2013-01-25 04:37:00,29.6,28.1,30.10,SSE,164,0.0,0.0,94,0.00,,,0.00,VWS V13.01,2013-01-25 10:37:00,
2013-01-25 04:42:00,29.6,28.1,30.10,SE,140,0.0,0.0,94,0.00,,,0.00,VWS V13.01,2013-01-25 10:42:00,
2013-01-25 04:47:00,29.6,28.1,30.10,South,175,0.0,0.0,94,0.00,,,0.00,VWS V13.01,2013-01-25 10:47:00,
2013-01-25 04:52:00,29.6,28.4,30.10,SSW,192,0.0,0.0,95,0.00,,,0.00,VWS V13.01,2013-01-25 10:52:00,
2013-01-25 04:57:00,29.8,28.6,30.10,South,186,0.0,0.0,95,0.00,,,0.00,VWS V13.01,2013-01-25 10:57:00,
2013-01-25 05:02:00,29.6,28.4,30.10,South,171,0.0,0.0,95,0.00,,,0.00,VWS V13.01,2013-01-25 11:02:00,
2013-01-25 05:07:00,29.8,28.6,30.10,SSW,212,0.0,0.0,95,0.00,,,0.00,VWS V13.01,2013-01-25 11:07:00,
2013-01-25 05:12:00,29.8,28.6,30.10,SW,222,0.0,0.0,95,0.00,,,0.00,VWS V13.01,2013-01-25 11:12:00,
2013-01-25 05:17:00,30.2,29.7,30.10,WNW,283,0.0,0.0,98,0.00,,,0.00,VWS V13.01,2013-01-25 11:17:00,
2013-01-25 05:22:00,30.0,29.8,30.10,NW,304,0.0,0.0,99,0.00,,,0.00,VWS V13.01,2013-01-25 11:22:00,
2013-01-25 05:27:00,30.0,29.8,30.10,NW,304,0.0,0.0,99,0.00,,,0.00,VWS V13.01,2013-01-25 11:27:00,
2013-01-25 05:32:00,30.0,29.8,30.10,West,274,0.0,0.0,99,0.00,,,0.00,VWS V13.01,2013-01-25 11:32:00,
2013-01-25 05:37:00,30.0,30.0,30.10,West,281,0.0,0.0,100,0.00,,,0.00,VWS V13.01,2013-01-25 11:37:00,
2013-01-25 05:42:00,30.0,30.0,30.10,WSW,237,0.0,0.0,100,0.00,,,0.00,VWS V13.01,2013-01-25 11:42:00,
2013-01-25 05:47:00,29.8,29.6,30.10,WSW,258,0.0,0.0,99,0.00,,,0.00,VWS V13.01,2013-01-25 11:47:00,
2013-01-25 05:52:00,29.8,29.6,30.10,SSW,202,0.0,0.0,99,0.00,,,0.00,VWS V13.01,2013-01-25 11:52:00,
2013-01-25 05:57:00,29.8,29.6,30.10,SSE,162,0.0,0.0,99,0.00,,,0.00,VWS V13.01,2013-01-25 11:57:00,
2013-01-25 06:02:00,29.8,29.6,30.10,WSW,249,0.0,0.0,99,0.00,,,0.00,VWS V13.01,2013-01-25 12:02:00,
2013-01-25 06:07:00,29.8,29.6,30.10,South,170,0.0,0.0,99,0.00,,,0.00,VWS V13.01,2013-01-25 12:07:00,
2013-01-25 06:12:00,29.8,29.6,30.10,WSW,254,0.0,0.0,99,0.00,,,0.00,VWS V13.01,2013-01-25 12:12:00,
2013-01-25 06:17:00,29.8,29.6,30.13,SSW,194,0.0,0.0,99,0.00,,,0.00,VWS V13.01,2013-01-25 12:17:00,
2013-01-25 06:22:00,29.8,29.6,30.13,SW,217,0.0,0.0,99,0.00,,,0.00,VWS V13.01,2013-01-25 12:22:00,
2013-01-25 06:27:00,29.8,29.6,30.13,WSW,240,0.0,0.0,99,0.00,,,0.00,VWS V13.01,2013-01-25 12:27:00,
2013-01-25 06:32:00,29.8,29.6,30.13,WSW,240,0.0,0.0,99,0.00,,,0.00,VWS V13.01,2013-01-25 12:32:00,
2013-01-25 06:37:00,29.8,29.6,30.13,WSW,240,0.0,0.0,99,0.00,,,0.00,VWS V13.01,2013-01-25 12:37:00,
2013-01-25 06:42:00,30.0,30.0,30.13,WNW,292,0.0,0.0,100,0.00,,,0.00,VWS V13.01,2013-01-25 12:42:00,
2013-01-25 06:47:00,30.0,30.0,30.13,WNW,292,0.0,0.0,100,0.00,,,0.00,VWS V13.01,2013-01-25 12:47:00,
2013-01-25 06:52:00,30.0,30.0,30.13,WNW,292,0.0,0.0,100,0.00,,,0.00,VWS V13.01,2013-01-25 12:52:00,
2013-01-25 06:57:00,30.0,30.0,30.13,WNW,292,0.0,0.0,100,0.00,,,0.00,VWS V13.01,2013-01-25 12:57:00,
2013-01-25 07:02:00,30.2,30.2,30.13,WNW,284,0.0,0.0,100,0.00,,,0.00,VWS V13.01,2013-01-25 13:02:00,
2013-01-25 07:07:00,30.2,30.2,30.13,South,177,0.0,0.0,100,0.00,,,0.00,VWS V13.01,2013-01-25 13:07:00,
2013-01-25 07:12:00,30.2,30.2,30.13,WSW,237,0.0,0.0,100,0.00,,,0.00,VWS V13.01,2013-01-25 13:12:00,
2013-01-25 07:17:00,30.4,30.4,30.13,SW,225,0.0,0.0,100,0.00,,,0.00,VWS V13.01,2013-01-25 13:17:00,
2013-01-25 07:22:00,30.4,30.4,30.13,SSW,203,0.0,0.0,100,0.00,,,0.00,VWS V13.01,2013-01-25 13:22:00,
2013-01-25 07:27:00,30.4,30.4,30.13,SSW,198,0.0,0.0,100,0.00,,,0.00,VWS V13.01,2013-01-25 13:27:00,
2013-01-25 07:32:00,30.4,30.4,30.16,SSW,195,0.0,0.0,100,0.00,,,0.00,VWS V13.01,2013-01-25 13:32:00,
2013-01-25 07:37:00,30.4,30.4,30.16,SW,218,0.0,0.0,100,0.00,,,0.00,VWS V13.01,2013-01-25 13:37:00,
2013-01-25 07:42:00,30.5,30.5,30.16,WSW,247,0.0,0.0,100,0.00,,,0.00,VWS V13.01,2013-01-25 13:42:00,
2013-01-25 07:47:00,30.5,30.5,30.16,WSW,257,0.0,0.0,100,0.00,,,0.00,VWS V13.01,2013-01-25 13:47:00,
2013-01-25 07:52:00,30.5,30.5,30.16,SW,229,0.0,0.0,100,0.00,,,0.00,VWS V13.01,2013-01-25 13:52:00,
2013-01-25 07:57:00,30.5,30.5,30.16,SW,228,0.0,0.0,100,0.00,,,0.00,VWS V13.01,2013-01-25 13:57:00,
2013-01-25 08:02:00,30.7,30.7,30.16,SSW,205,0.0,0.0,100,0.00,,,0.00,VWS V13.01,2013-01-25 14:02:00,
2013-01-25 08:07:00,30.7,30.7,30.16,SSW,211,0.0,0.0,100,0.00,,,0.00,VWS V13.01,2013-01-25 14:07:00,
2013-01-25 08:12:00,30.7,30.7,30.16,WSW,240,0.0,0.0,100,0.00,,,0.00,VWS V13.01,2013-01-25 14:12:00,
2013-01-25 08:17:00,30.7,30.7,30.16,SSW,213,0.0,0.0,100,0.00,,,0.00,VWS V13.01,2013-01-25 14:17:00,
2013-01-25 08:22:00,30.7,30.7,30.16,SW,217,0.0,0.0,100,0.00,,,0.00,VWS V13.01,2013-01-25 14:22:00,
2013-01-25 08:27:00,30.7,30.7,30.16,SSW,207,0.0,0.0,100,0.00,,,0.00,VWS V13.01,2013-01-25 14:27:00,
2013-01-25 08:32:00,30.7,30.7,30.16,SW,236,0.0,0.0,100,0.00,,,0.00,VWS V13.01,2013-01-25 14:32:00,
2013-01-25 08:37:00,30.7,30.7,30.16,SSW,208,0.0,0.0,100,0.00,,,0.00,VWS V13.01,2013-01-25 14:37:00,
2013-01-25 08:42:00,30.9,30.9,30.16,SW,221,2.7,2.7,100,0.00,,,0.00,VWS V13.01,2013-01-25 14:42:00,
2013-01-25 08:47:00,30.9,30.9,30.19,SSW,193,3.1,3.1,100,0.00,,,0.00,VWS V13.01,2013-01-25 14:47:00,
2013-01-25 08:52:00,30.9,30.9,30.19,SW,224,0.0,0.0,100,0.00,,,0.00,VWS V13.01,2013-01-25 14:52:00,
2013-01-25 08:57:00,30.9,30.9,30.19,South,185,2.7,3.1,100,0.00,,,0.00,VWS V13.01,2013-01-25 14:57:00,
2013-01-25 09:02:00,30.9,30.9,30.19,SW,236,2.7,2.7,100,0.00,,,0.00,VWS V13.01,2013-01-25 15:02:00,
2013-01-25 09:07:00,31.1,31.1,30.19,SW,227,3.6,3.6,100,0.00,,,0.00,VWS V13.01,2013-01-25 15:07:00,
2013-01-25 09:12:00,31.1,31.1,30.19,WSW,246,3.1,3.1,100,0.00,,,0.00,VWS V13.01,2013-01-25 15:12:00,
2013-01-25 09:17:00,31.1,31.1,30.19,SW,217,2.7,2.7,100,0.00,,,0.00,VWS V13.01,2013-01-25 15:17:00,
2013-01-25 09:22:00,31.1,31.1,30.19,SW,215,0.0,0.0,100,0.00,,,0.00,VWS V13.01,2013-01-25 15:22:00,
2013-01-25 09:27:00,31.3,31.3,30.19,WSW,238,2.2,2.2,100,0.00,,,0.00,VWS V13.01,2013-01-25 15:27:00,
2013-01-25 09:32:00,31.4,31.4,30.19,SW,220,2.2,4.0,100,0.00,,,0.00,VWS V13.01,2013-01-25 15:32:00,
2013-01-25 09:37:00,31.6,31.6,30.19,WSW,240,3.6,3.6,100,0.00,,,0.00,VWS V13.01,2013-01-25 15:37:00,
2013-01-25 09:42:00,31.6,31.6,30.19,WSW,250,0.0,2.2,100,0.00,,,0.00,VWS V13.01,2013-01-25 15:42:00,
2013-01-25 09:47:00,31.8,31.8,30.19,West,260,3.1,3.6,100,0.00,,,0.00,VWS V13.01,2013-01-25 15:47:00,
2013-01-25 09:52:00,32.0,32.0,30.19,South,173,2.7,2.7,100,0.00,,,0.00,VWS V13.01,2013-01-25 15:52:00,
2013-01-25 09:57:00,32.0,32.0,30.19,SSE,168,2.7,4.0,100,0.00,,,0.00,VWS V13.01,2013-01-25 15:57:00,
2013-01-25 10:02:00,32.2,32.2,30.19,SSW,201,3.1,4.0,100,0.00,,,0.00,VWS V13.01,2013-01-25 16:02:00,
2013-01-25 10:07:00,32.5,32.5,30.19,South,179,3.6,3.6,100,0.00,,,0.00,VWS V13.01,2013-01-25 16:07:00,
2013-01-25 10:12:00,32.5,32.5,30.19,SSW,197,2.2,4.0,100,0.00,,,0.00,VWS V13.01,2013-01-25 16:12:00,
2013-01-25 10:17:00,32.9,32.9,30.22,SW,216,3.1,4.0,100,0.00,,,0.00,VWS V13.01,2013-01-25 16:17:00,
2013-01-25 10:22:00,32.7,32.7,30.22,WSW,243,3.1,4.0,100,0.00,,,0.00,VWS V13.01,2013-01-25 16:22:00,
2013-01-25 10:27:00,32.9,32.9,30.22,South,177,3.6,5.4,100,0.00,,,0.00,VWS V13.01,2013-01-25 16:27:00,
2013-01-25 10:32:00,32.9,32.9,30.22,WSW,239,0.0,2.7,100,0.00,,,0.00,VWS V13.01,2013-01-25 16:32:00,
2013-01-25 10:37:00,33.1,33.1,30.22,SSW,198,2.2,2.2,100,0.00,,,0.00,VWS V13.01,2013-01-25 16:37:00,
2013-01-25 10:42:00,33.1,33.1,30.22,SSE,165,3.6,3.6,100,0.00,,,0.00,VWS V13.01,2013-01-25 16:42:00,
2013-01-25 10:47:00,33.1,33.1,30.22,South,169,0.0,0.0,100,0.00,,,0.00,VWS V13.01,2013-01-25 16:47:00,
2013-01-25 10:52:00,33.6,33.6,30.22,South,185,0.0,4.0,100,0.00,,,0.00,VWS V13.01,2013-01-25 16:52:00,
2013-01-25 10:57:00,33.8,33.8,30.22,South,176,4.0,4.9,100,0.00,,,0.00,VWS V13.01,2013-01-25 16:57:00,
2013-01-25 11:01:00,33.8,33.8,30.22,SSE,152,2.7,2.7,100,0.00,,,0.00,VWS V13.01,2013-01-25 17:01:00,
2013-01-25 11:06:00,34.0,34.0,30.22,WSW,239,2.7,4.0,100,0.00,,,0.00,VWS V13.01,2013-01-25 17:06:00,
2013-01-25 11:11:00,34.1,34.1,30.22,West,259,4.0,4.0,100,0.00,,,0.00,VWS V13.01,2013-01-25 17:11:00,
2013-01-25 11:16:00,34.1,33.9,30.22,SW,228,3.6,4.0,99,0.00,,,0.00,VWS V13.01,2013-01-25 17:16:00,
2013-01-25 11:21:00,34.1,33.6,30.22,SW,231,5.4,6.3,98,0.00,,,0.00,VWS V13.01,2013-01-25 17:21:00,
2013-01-25 11:26:00,34.3,33.6,30.22,SW,236,2.2,3.6,97,0.00,,,0.00,VWS V13.01,2013-01-25 17:26:00,
2013-01-25 11:31:00,34.5,33.7,30.22,West,268,2.7,2.7,97,0.00,,,0.00,VWS V13.01,2013-01-25 17:31:00,
2013-01-25 11:36:00,34.9,34.1,30.22,WSW,254,4.0,4.0,97,0.00,,,0.00,VWS V13.01,2013-01-25 17:36:00,
2013-01-25 11:41:00,35.0,34.3,30.22,SW,231,4.9,4.9,97,0.00,,,0.00,VWS V13.01,2013-01-25 17:41:00,
2013-01-25 11:46:00,34.9,33.8,30.22,WSW,247,2.7,4.0,96,0.00,,,0.00,VWS V13.01,2013-01-25 17:46:00,
2013-01-25 11:51:00,35.4,34.1,30.22,South,189,4.0,4.0,95,0.00,,,0.00,VWS V13.01,2013-01-25 17:51:00,
2013-01-25 11:56:00,35.6,34.3,30.22,WSW,241,0.0,0.0,95,0.00,,,0.00,VWS V13.01,2013-01-25 17:56:00,
2013-01-25 12:01:00,35.6,34.0,30.22,SSE,165,2.7,3.6,94,0.00,,,0.00,VWS V13.01,2013-01-25 18:01:00,
2013-01-25 12:06:00,35.8,33.9,30.22,SSE,150,3.6,4.0,93,0.00,,,0.00,VWS V13.01,2013-01-25 18:06:00,
2013-01-25 12:11:00,35.9,33.6,30.22,South,177,4.0,4.0,91,0.00,,,0.00,VWS V13.01,2013-01-25 18:11:00,
2013-01-25 12:16:00,36.1,33.8,30.22,WSW,245,2.7,3.1,91,0.00,,,0.00,VWS V13.01,2013-01-25 18:16:00,
2013-01-25 12:21:00,36.3,33.9,30.22,South,183,2.7,4.9,91,0.00,,,0.00,VWS V13.01,2013-01-25 18:21:00,
2013-01-25 12:26:00,36.5,33.8,30.22,WSW,237,4.0,4.0,90,0.00,,,0.00,VWS V13.01,2013-01-25 18:26:00,
2013-01-25 12:31:00,36.8,34.5,30.22,SW,228,2.2,4.0,91,0.00,,,0.00,VWS V13.01,2013-01-25 18:31:00,
2013-01-25 12:36:00,36.8,34.2,30.22,SSW,212,3.1,3.6,90,0.00,,,0.00,VWS V13.01,2013-01-25 18:36:00,
2013-01-25 12:41:00,36.8,33.9,30.22,South,173,4.9,4.9,89,0.00,,,0.00,VWS V13.01,2013-01-25 18:41:00,
2013-01-25 12:46:00,36.8,33.6,30.22,SSW,199,2.7,3.6,88,0.00,,,0.00,VWS V13.01,2013-01-25 18:46:00,
2013-01-25 12:51:00,37.0,33.8,30.22,SW,229,3.1,4.0,88,0.00,,,0.00,VWS V13.01,2013-01-25 18:51:00,
2013-01-25 12:56:00,37.4,34.2,30.22,WSW,239,3.1,3.6,88,0.00,,,0.00,VWS V13.01,2013-01-25 18:56:00,
2013-01-25 13:01:00,37.4,33.9,30.22,WSW,242,2.7,4.0,87,0.00,,,0.00,VWS V13.01,2013-01-25 19:01:00,
2013-01-25 13:06:00,37.6,33.8,30.22,SSW,206,0.0,2.2,86,0.00,,,0.00,VWS V13.01,2013-01-25 19:06:00,
2013-01-25 13:11:00,37.7,33.9,30.22,South,184,3.1,3.6,86,0.00,,,0.00,VWS V13.01,2013-01-25 19:11:00,
2013-01-25 13:16:00,37.9,34.1,30.22,South,182,0.0,0.0,86,0.00,,,0.00,VWS V13.01,2013-01-25 19:16:00,
2013-01-25 13:21:00,38.3,34.5,30.22,SW,215,3.1,3.1,86,0.00,,,0.00,VWS V13.01,2013-01-25 19:21:00,
2013-01-25 13:26:00,38.3,34.2,30.22,SW,220,4.0,4.0,85,0.00,,,0.00,VWS V13.01,2013-01-25 19:26:00,
2013-01-25 13:31:00,38.6,34.8,30.22,WSW,256,3.6,4.0,86,0.00,,,0.00,VWS V13.01,2013-01-25 19:31:00,
2013-01-25 13:36:00,39.0,34.6,30.22,SW,232,4.9,4.9,84,0.00,,,0.00,VWS V13.01,2013-01-25 19:36:00,
2013-01-25 13:41:00,39.2,33.5,30.22,West,259,2.7,3.1,80,0.00,,,0.00,VWS V13.01,2013-01-25 19:41:00,
2013-01-25 13:46:00,39.5,34.2,30.22,SW,229,5.4,5.8,81,0.00,,,0.00,VWS V13.01,2013-01-25 19:46:00,
2013-01-25 13:51:00,39.7,34.4,30.22,SW,222,3.1,5.4,81,0.00,,,0.00,VWS V13.01,2013-01-25 19:51:00,
2013-01-25 13:56:00,40.1,34.4,30.22,SW,221,4.0,4.0,80,0.00,,,0.00,VWS V13.01,2013-01-25 19:56:00,
2013-01-25 14:01:00,40.4,34.8,30.19,SW,234,2.7,2.7,80,0.00,,,0.00,VWS V13.01,2013-01-25 20:01:00,
2013-01-25 14:06:00,40.4,33.5,30.19,West,264,0.0,4.0,76,0.00,,,0.00,VWS V13.01,2013-01-25 20:06:00,
2013-01-25 14:11:00,40.4,33.5,30.19,WSW,258,3.1,4.9,76,0.00,,,0.00,VWS V13.01,2013-01-25 20:11:00,
2013-01-25 14:16:00,40.6,33.7,30.19,WSW,257,3.1,4.0,76,0.00,,,0.00,VWS V13.01,2013-01-25 20:16:00,
2013-01-25 14:21:00,41.0,33.7,30.19,WSW,251,5.4,5.8,75,0.00,,,0.00,VWS V13.01,2013-01-25 20:21:00,
2013-01-25 14:26:00,41.3,33.7,30.19,West,268,5.4,6.3,74,0.00,,,0.00,VWS V13.01,2013-01-25 20:26:00,
2013-01-25 14:31:00,41.3,33.7,30.19,WSW,252,3.1,5.4,74,0.00,,,0.00,VWS V13.01,2013-01-25 20:31:00,
2013-01-25 14:36:00,41.3,33.7,30.19,WSW,239,4.0,4.0,74,0.00,,,0.00,VWS V13.01,2013-01-25 20:36:00,
2013-01-25 14:41:00,41.5,33.9,30.19,West,263,6.3,6.3,74,0.00,,,0.00,VWS V13.01,2013-01-25 20:41:00,
2013-01-25 14:46:00,41.5,33.5,30.19,SW,216,2.7,2.7,73,0.00,,,0.00,VWS V13.01,2013-01-25 20:46:00,
2013-01-25 14:51:00,41.7,34.0,30.19,SSW,205,3.1,3.1,74,0.00,,,0.00,VWS V13.01,2013-01-25 20:51:00,
2013-01-25 14:56:00,41.7,34.0,30.19,SSW,208,3.1,3.1,74,0.00,,,0.00,VWS V13.01,2013-01-25 20:56:00,
2013-01-25 15:01:00,41.7,33.7,30.19,WSW,240,3.1,3.1,73,0.00,,,0.00,VWS V13.01,2013-01-25 21:01:00,
2013-01-25 15:06:00,42.1,34.0,30.19,West,260,4.0,4.0,73,0.00,,,0.00,VWS V13.01,2013-01-25 21:06:00,
2013-01-25 15:11:00,42.1,34.0,30.19,WSW,237,3.1,4.0,73,0.00,,,0.00,VWS V13.01,2013-01-25 21:11:00,
2013-01-25 15:16:00,42.1,34.0,30.16,WSW,239,5.4,5.4,73,0.00,,,0.00,VWS V13.01,2013-01-25 21:16:00,
2013-01-25 15:21:00,42.1,33.7,30.16,West,281,3.1,3.1,72,0.00,,,0.00,VWS V13.01,2013-01-25 21:21:00,
2013-01-25 15:26:00,41.9,33.5,30.16,WSW,258,3.6,3.6,72,0.00,,,0.00,VWS V13.01,2013-01-25 21:26:00,
2013-01-25 15:31:00,41.9,33.9,30.19,West,279,3.6,3.6,73,0.00,,,0.00,VWS V13.01,2013-01-25 21:31:00,
2013-01-25 15:36:00,42.1,34.4,30.19,West,259,2.7,3.1,74,0.00,,,0.00,VWS V13.01,2013-01-25 21:36:00,
2013-01-25 15:41:00,42.1,33.7,30.19,WSW,254,5.4,5.4,72,0.00,,,0.00,VWS V13.01,2013-01-25 21:41:00,
2013-01-25 15:46:00,42.1,34.0,30.19,West,274,3.6,3.6,73,0.00,,,0.00,VWS V13.01,2013-01-25 21:46:00,
2013-01-25 15:51:00,42.2,34.2,30.19,West,268,4.9,4.9,73,0.00,,,0.00,VWS V13.01,2013-01-25 21:51:00,
2013-01-25 15:56:00,42.4,34.4,30.19,WSW,258,2.7,2.7,73,0.00,,,0.00,VWS V13.01,2013-01-25 21:56:00,
2013-01-25 16:01:00,42.4,34.4,30.19,West,267,3.6,4.0,73,0.00,,,0.00,VWS V13.01,2013-01-25 22:01:00,
2013-01-25 16:06:00,42.4,34.4,30.19,West,270,2.7,2.7,73,0.00,,,0.00,VWS V13.01,2013-01-25 22:06:00,
2013-01-25 16:11:00,42.4,34.0,30.19,West,278,4.0,4.0,72,0.00,,,0.00,VWS V13.01,2013-01-25 22:11:00,
2013-01-25 16:16:00,42.4,34.4,30.16,WSW,254,2.7,2.7,73,0.00,,,0.00,VWS V13.01,2013-01-25 22:16:00,
2013-01-25 16:21:00,42.6,34.2,30.16,West,271,5.8,5.8,72,0.00,,,0.00,VWS V13.01,2013-01-25 22:21:00,
2013-01-25 16:26:00,42.6,34.6,30.16,WSW,251,3.6,4.0,73,0.00,,,0.00,VWS V13.01,2013-01-25 22:26:00,
2013-01-25 16:31:00,42.8,34.7,30.19,WSW,239,3.1,3.1,73,0.00,,,0.00,VWS V13.01,2013-01-25 22:31:00,
2013-01-25 16:36:00,43.0,34.6,30.19,West,262,3.1,5.4,72,0.00,,,0.00,VWS V13.01,2013-01-25 22:36:00,
2013-01-25 16:41:00,43.0,34.6,30.19,WSW,250,3.1,3.1,72,0.00,,,0.00,VWS V13.01,2013-01-25 22:41:00,
2013-01-25 16:46:00,43.0,34.2,30.19,WSW,250,2.2,3.1,71,0.00,,,0.00,VWS V13.01,2013-01-25 22:46:00,
2013-01-25 16:51:00,42.8,34.4,30.19,SW,236,4.0,4.0,72,0.00,,,0.00,VWS V13.01,2013-01-25 22:51:00,
2013-01-25 16:56:00,42.4,34.4,30.19,WSW,254,3.6,4.9,73,0.00,,,0.00,VWS V13.01,2013-01-25 22:56:00,
2013-01-25 17:01:00,42.2,34.2,30.19,West,260,3.1,4.0,73,0.00,,,0.00,VWS V13.01,2013-01-25 23:01:00,
2013-01-25 17:06:00,42.2,34.2,30.19,WSW,239,3.1,3.6,73,0.00,,,0.00,VWS V13.01,2013-01-25 23:06:00,
2013-01-25 17:11:00,42.1,34.4,30.19,WSW,239,3.6,3.6,74,0.00,,,0.00,VWS V13.01,2013-01-25 23:11:00,
2013-01-25 17:16:00,42.1,34.4,30.22,WSW,254,4.0,4.0,74,0.00,,,0.00,VWS V13.01,2013-01-25 23:16:00,
2013-01-25 17:21:00,41.9,34.2,30.22,SW,236,3.1,3.6,74,0.00,,,0.00,VWS V13.01,2013-01-25 23:21:00,
2013-01-25 17:26:00,41.9,34.2,30.22,WSW,254,0.0,2.2,74,0.00,,,0.00,VWS V13.01,2013-01-25 23:26:00,
2013-01-25 17:31:00,41.7,34.0,30.22,WSW,246,2.7,2.7,74,0.00,,,0.00,VWS V13.01,2013-01-25 23:31:00,
2013-01-25 17:36:00,41.7,34.0,30.22,WSW,251,0.0,0.0,74,0.00,,,0.00,VWS V13.01,2013-01-25 23:36:00,
2013-01-25 17:41:00,41.5,34.2,30.22,WSW,258,0.0,0.0,75,0.00,,,0.00,VWS V13.01,2013-01-25 23:41:00,
2013-01-25 17:45:00,41.5,34.2,30.22,WSW,239,0.0,0.0,75,0.00,,,0.00,VWS V13.01,2013-01-25 23:45:00,
2013-01-25 17:50:00,41.3,34.0,30.22,WSW,239,0.0,0.0,75,0.00,,,0.00,VWS V13.01,2013-01-25 23:50:00,
2013-01-25 17:55:00,41.2,33.8,30.22,WSW,239,0.0,0.0,75,0.00,,,0.00,VWS V13.01,2013-01-25 23:55:00,
2013-01-25 18:00:00,41.0,33.7,30.25,WSW,239,0.0,0.0,75,0.00,,,0.00,VWS V13.01,2013-01-26 00:00:00,
2013-01-25 18:05:00,40.8,33.8,30.25,WSW,239,0.0,0.0,76,0.00,,,0.00,VWS V13.01,2013-01-26 00:05:00,
2013-01-25 18:10:00,40.8,33.8,30.25,WSW,239,0.0,0.0,76,0.00,,,0.00,VWS V13.01,2013-01-26 00:10:00,
2013-01-25 18:15:00,40.6,34.0,30.22,WSW,239,0.0,0.0,77,0.00,,,0.00,VWS V13.01,2013-01-26 00:15:00,
2013-01-25 18:20:00,40.3,33.6,30.22,WSW,239,0.0,0.0,77,0.00,,,0.00,VWS V13.01,2013-01-26 00:20:00,
2013-01-25 18:25:00,40.3,33.6,30.22,WSW,239,0.0,0.0,77,0.00,,,0.00,VWS V13.01,2013-01-26 00:25:00,
2013-01-25 18:30:00,40.1,34.1,30.25,WSW,239,0.0,0.0,79,0.00,,,0.00,VWS V13.01,2013-01-26 00:30:00,
2013-01-25 18:35:00,39.9,33.9,30.25,WSW,239,0.0,0.0,79,0.00,,,0.00,VWS V13.01,2013-01-26 00:35:00,
2013-01-25 18:40:00,39.7,34.4,30.25,WSW,239,0.0,0.0,81,0.00,,,0.00,VWS V13.01,2013-01-26 00:40:00,
2013-01-25 18:45:00,39.7,34.4,30.25,WSW,239,0.0,0.0,81,0.00,,,0.00,VWS V13.01,2013-01-26 00:45:00,
2013-01-25 18:50:00,39.4,34.0,30.25,WSW,239,0.0,0.0,81,0.00,,,0.00,VWS V13.01,2013-01-26 00:50:00,
2013-01-25 18:55:00,39.2,33.8,30.25,WSW,239,0.0,0.0,81,0.00,,,0.00,VWS V13.01,2013-01-26 00:55:00,
2013-01-25 19:00:00,39.0,33.7,30.25,WSW,239,0.0,0.0,81,0.00,,,0.00,VWS V13.01,2013-01-26 01:00:00,
2013-01-25 19:05:00,38.6,33.3,30.25,WSW,239,0.0,0.0,81,0.00,,,0.00,VWS V13.01,2013-01-26 01:05:00,
2013-01-25 19:10:00,38.3,34.2,30.25,NNW,330,0.0,0.0,85,0.00,,,0.00,VWS V13.01,2013-01-26 01:10:00,
2013-01-25 19:15:00,37.9,34.7,30.22,NNW,330,0.0,0.0,88,0.00,,,0.00,VWS V13.01,2013-01-26 01:15:00,
2013-01-25 19:20:00,37.7,34.8,30.22,NNW,330,0.0,0.0,89,0.00,,,0.00,VWS V13.01,2013-01-26 01:20:00,
2013-01-25 19:25:00,37.6,34.3,30.22,NNW,330,0.0,0.0,88,0.00,,,0.00,VWS V13.01,2013-01-26 01:25:00,
2013-01-25 19:30:00,37.4,34.2,30.22,NNW,330,0.0,0.0,88,0.00,,,0.00,VWS V13.01,2013-01-26 01:30:00,
2013-01-25 19:35:00,37.2,34.0,30.22,NNW,330,0.0,0.0,88,0.00,,,0.00,VWS V13.01,2013-01-26 01:35:00,
2013-01-25 19:40:00,37.2,34.3,30.22,NNW,330,0.0,0.0,89,0.00,,,0.00,VWS V13.01,2013-01-26 01:40:00,
2013-01-25 19:45:00,37.0,34.4,30.22,NNW,330,0.0,0.0,90,0.00,,,0.00,VWS V13.01,2013-01-26 01:45:00,
2013-01-25 19:50:00,36.8,34.2,30.22,NNW,330,0.0,0.0,90,0.00,,,0.00,VWS V13.01,2013-01-26 01:50:00,
2013-01-25 19:55:00,36.8,34.5,30.22,NNW,330,0.0,0.0,91,0.00,,,0.00,VWS V13.01,2013-01-26 01:55:00,
2013-01-25 20:00:00,36.7,34.6,30.22,NNW,330,0.0,0.0,92,0.00,,,0.00,VWS V13.01,2013-01-26 02:00:00,
2013-01-25 20:05:00,36.7,34.8,30.22,NNW,330,0.0,0.0,93,0.00,,,0.00,VWS V13.01,2013-01-26 02:05:00,
2013-01-25 20:10:00,36.7,34.8,30.22,NNW,330,0.0,0.0,93,0.00,,,0.00,VWS V13.01,2013-01-26 02:10:00,
2013-01-25 20:15:00,36.5,34.7,30.22,NNW,330,0.0,0.0,93,0.00,,,0.00,VWS V13.01,2013-01-26 02:15:00,
2013-01-25 20:20:00,36.3,34.5,30.22,NNW,330,0.0,0.0,93,0.00,,,0.00,VWS V13.01,2013-01-26 02:20:00,
2013-01-25 20:25:00,36.1,34.3,30.22,NNW,330,0.0,0.0,93,0.00,,,0.00,VWS V13.01,2013-01-26 02:25:00,
2013-01-25 20:30:00,36.1,34.3,30.22,NNW,330,0.0,0.0,93,0.00,,,0.00,VWS V13.01,2013-01-26 02:30:00,
2013-01-25 20:35:00,35.9,34.1,30.22,NNW,330,0.0,0.0,93,0.00,,,0.00,VWS V13.01,2013-01-26 02:35:00,
2013-01-25 20:40:00,35.9,34.1,30.22,NNW,330,0.0,0.0,93,0.00,,,0.00,VWS V13.01,2013-01-26 02:40:00,
2013-01-25 20:45:00,35.9,34.1,30.22,NNW,330,0.0,0.0,93,0.00,,,0.00,VWS V13.01,2013-01-26 02:45:00,
2013-01-25 20:50:00,35.9,34.1,30.22,NNW,330,0.0,0.0,93,0.00,,,0.00,VWS V13.01,2013-01-26 02:50:00,
2013-01-25 20:55:00,35.9,34.4,30.22,NNW,330,0.0,0.0,94,0.00,,,0.00,VWS V13.01,2013-01-26 02:55:00,
2013-01-25 21:00:00,35.9,34.4,30.25,NNW,330,0.0,0.0,94,0.00,,,0.00,VWS V13.01,2013-01-26 03:00:00,
2013-01-25 21:05:00,35.9,34.7,30.25,NNW,330,0.0,0.0,95,0.00,,,0.00,VWS V13.01,2013-01-26 03:05:00,
2013-01-25 21:10:00,35.9,34.7,30.25,NNW,330,0.0,0.0,95,0.00,,,0.00,VWS V13.01,2013-01-26 03:10:00,
2013-01-25 21:15:00,35.8,34.5,30.25,NNW,330,0.0,0.0,95,0.00,,,0.00,VWS V13.01,2013-01-26 03:15:00,
2013-01-25 21:20:00,35.6,34.0,30.25,NNW,330,0.0,0.0,94,0.00,,,0.00,VWS V13.01,2013-01-26 03:20:00,
2013-01-25 21:25:00,35.4,33.8,30.25,NNW,330,0.0,0.0,94,0.00,,,0.00,VWS V13.01,2013-01-26 03:25:00,
2013-01-25 21:30:00,35.0,33.5,30.25,NE,46,0.0,0.0,94,0.00,,,0.00,VWS V13.01,2013-01-26 03:30:00,
2013-01-25 21:35:00,34.9,33.3,30.25,NE,47,0.0,0.0,94,0.00,,,0.00,VWS V13.01,2013-01-26 03:35:00,
2013-01-25 21:40:00,34.9,33.3,30.25,NE,47,0.0,0.0,94,0.00,,,0.00,VWS V13.01,2013-01-26 03:40:00,
2013-01-25 21:45:00,34.9,33.8,30.22,NE,47,0.0,0.0,96,0.00,,,0.00,VWS V13.01,2013-01-26 03:45:00,
2013-01-25 21:50:00,35.0,34.0,30.22,NE,47,0.0,0.0,96,0.00,,,0.00,VWS V13.01,2013-01-26 03:50:00,
2013-01-25 21:55:00,35.0,34.3,30.22,NE,47,0.0,0.0,97,0.00,,,0.00,VWS V13.01,2013-01-26 03:55:00,
2013-01-25 22:00:00,35.0,34.3,30.25,NE,47,0.0,0.0,97,0.00,,,0.00,VWS V13.01,2013-01-26 04:00:00,
2013-01-25 22:05:00,34.7,33.7,30.25,WSW,252,0.0,0.0,96,0.00,,,0.00,VWS V13.01,2013-01-26 04:05:00,
2013-01-25 22:10:00,34.3,33.3,30.25,WSW,252,0.0,0.0,96,0.00,,,0.00,VWS V13.01,2013-01-26 04:10:00,
2013-01-25 22:15:00,34.3,33.6,30.25,WSW,252,0.0,0.0,97,0.00,,,0.00,VWS V13.01,2013-01-26 04:15:00,
2013-01-25 22:20:00,34.3,33.6,30.25,WSW,252,0.0,0.0,97,0.00,,,0.00,VWS V13.01,2013-01-26 04:20:00,
2013-01-25 22:25:00,34.3,33.8,30.25,WSW,252,0.0,0.0,98,0.00,,,0.00,VWS V13.01,2013-01-26 04:25:00,
2013-01-25 22:30:00,34.1,33.6,30.25,WSW,252,0.0,0.0,98,0.00,,,0.00,VWS V13.01,2013-01-26 04:30:00,
2013-01-25 22:35:00,34.1,33.6,30.25,West,268,0.0,0.0,98,0.00,,,0.00,VWS V13.01,2013-01-26 04:35:00,
2013-01-25 22:40:00,34.1,33.6,30.25,West,268,0.0,0.0,98,0.00,,,0.00,VWS V13.01,2013-01-26 04:40:00,
2013-01-25 22:45:00,34.1,33.9,30.25,West,270,0.0,0.0,99,0.00,,,0.00,VWS V13.01,2013-01-26 04:45:00,
2013-01-25 22:50:00,34.0,33.5,30.25,NW,309,0.0,0.0,98,0.00,,,0.00,VWS V13.01,2013-01-26 04:50:00,
2013-01-25 22:55:00,34.0,33.5,30.25,NW,309,0.0,0.0,98,0.00,,,0.00,VWS V13.01,2013-01-26 04:55:00,
2013-01-25 23:00:00,33.8,33.3,30.25,NW,309,0.0,0.0,98,0.00,,,0.00,VWS V13.01,2013-01-26 05:00:00,
2013-01-25 23:01:00,33.6,33.1,30.25,NW,309,0.0,0.0,98,0.00,,,0.00,VWS V13.01,2013-01-26 05:01:00,
2013-01-25 23:06:00,33.4,32.9,30.25,NW,309,0.0,0.0,98,0.00,,,0.00,VWS V13.01,2013-01-26 05:06:00,
2013-01-25 23:11:00,33.4,32.9,30.25,NW,309,0.0,0.0,98,0.00,,,0.00,VWS V13.01,2013-01-26 05:11:00,
2013-01-25 23:16:00,33.2,32.7,30.25,NNE,24,0.0,0.0,98,0.00,,,0.00,VWS V13.01,2013-01-26 05:16:00,
2013-01-25 23:21:00,33.1,32.6,30.25,NNE,24,0.0,0.0,98,0.00,,,0.00,VWS V13.01,2013-01-26 05:21:00,
2013-01-25 23:26:00,33.4,33.2,30.25,NNE,24,0.0,0.0,99,0.00,,,0.00,VWS V13.01,2013-01-26 05:26:00,
2013-01-25 23:31:00,33.4,33.4,30.25,NNE,24,0.0,0.0,100,0.00,,,0.00,VWS V13.01,2013-01-26 05:31:00,
2013-01-25 23:36:00,33.1,33.1,30.25,NNE,24,0.0,0.0,100,0.00,,,0.00,VWS V13.01,2013-01-26 05:36:00,
2013-01-25 23:41:00,33.1,33.1,30.25,NNE,24,0.0,0.0,100,0.00,,,0.00,VWS V13.01,2013-01-26 05:41:00,
2013-01-25 23:46:00,33.1,33.1,30.25,NNE,24,0.0,0.0,100,0.00,,,0.00,VWS V13.01,2013-01-26 05:46:00,
2013-01-25 23:51:00,33.1,33.1,30.25,NNE,24,0.0,0.0,100,0.00,,,0.00,VWS V13.01,2013-01-26 05:51:00,
2013-01-25 23:56:00,33.1,33.1,30.25,NNE,24,0.0,0.0,100,0.00,,,0.00,VWS V13.01,2013-01-26 05:56:00,